| time (UTC) | temp F | wind direction | speed MPH | gust MPH | rain 1hr in | rain 24hr in | rain mn in | humidity % | barometer mb |
| 20260508121415 | 67 | 180 | 6.0 | 15.0 | 0.00 | 0.00 | 0.00 | 41 | 1011.9 |
| 20260508120415 | 67 | 195 | 7.0 | 15.0 | 0.00 | 0.00 | 0.00 | 43 | 1012.1 |
| 20260508115415 | 67 | 192 | 8.0 | 14.0 | 0.00 | 0.00 | 0.00 | 42 | 1012.2 |
| 20260508114415 | 67 | 187 | 10.0 | 19.0 | 0.00 | 0.00 | 0.00 | 40 | 1012.3 |
| 20260508113415 | 66 | 209 | 8.0 | 12.0 | 0.00 | 0.00 | 0.00 | 44 | 1012.3 |
| 20260508112415 | 65 | 199 | 7.0 | 11.0 | 0.00 | 0.00 | 0.00 | 50 | 1012.4 |
| 20260508111415 | 65 | 149 | 5.0 | 12.0 | 0.00 | 0.00 | 0.00 | 50 | 1012.6 |
| 20260508110415 | 64 | 171 | 3.0 | 9.0 | 0.00 | 0.00 | 0.00 | 54 | 1012.6 |
| 20260508105435 | 63 | 137 | 4.0 | 9.0 | 0.00 | 0.00 | 0.00 | 58 | 1012.8 |
| 20260508104415 | 63 | 166 | 2.0 | 6.0 | 0.00 | 0.00 | 0.00 | 60 | 1013.0 |
| 20260508103416 | 63 | 113 | 3.0 | 7.0 | 0.00 | 0.00 | 0.00 | 59 | 1013.0 |
| 20260508102415 | 63 | 162 | 6.0 | 9.0 | 0.00 | 0.00 | 0.00 | 57 | 1013.0 |
| 20260508101415 | 62 | 185 | 5.0 | 11.0 | 0.00 | 0.00 | 0.00 | 58 | 1013.0 |
| 20260508100415 | 63 | 147 | 6.0 | 11.0 | 0.00 | 0.00 | 0.00 | 55 | 1012.9 |
| 20260508095415 | 63 | 167 | 4.0 | 8.0 | 0.00 | 0.00 | 0.00 | 55 | 1012.9 |
| 20260508094416 | 62 | 183 | 3.0 | 7.0 | 0.00 | 0.00 | 0.00 | 56 | 1012.9 |
| 20260508093415 | 62 | 178 | 5.0 | 10.0 | 0.00 | 0.00 | 0.00 | 59 | 1013.0 |
| 20260508092418 | 62 | 216 | 5.0 | 8.0 | 0.00 | 0.00 | 0.00 | 60 | 1013.0 |
| 20260508091415 | 61 | 163 | 5.0 | 9.0 | 0.00 | 0.00 | 0.00 | 61 | 1013.1 |
| 20260508090415 | 61 | 125 | 7.0 | 10.0 | 0.00 | 0.00 | 0.00 | 61 | 1013.1 |
| 20260508085415 | 61 | 130 | 4.0 | 6.0 | 0.00 | 0.00 | 0.00 | 61 | 1013.2 |
| 20260508084416 | 61 | 173 | 5.0 | 9.0 | 0.00 | 0.00 | 0.00 | 59 | 1013.2 |
| 20260508083535 | 61 | 199 | 5.0 | 8.0 | 0.00 | 0.00 | 0.00 | 58 | 1013.1 |
| 20260508082415 | 61 | 171 | 4.0 | 8.0 | 0.00 | 0.00 | 0.00 | 62 | 1013.1 |
| 20260508081455 | 60 | 194 | 3.0 | 6.0 | 0.00 | 0.00 | 0.00 | 63 | 1013.1 |
| 20260508080415 | 59 | 157 | 5.0 | 10.0 | 0.00 | 0.00 | 0.00 | 65 | 1013.1 |
| 20260508075416 | 59 | 204 | 4.0 | 7.0 | 0.00 | 0.00 | 0.00 | 67 | 1013.1 |
| 20260508074436 | 59 | 154 | 3.0 | 6.0 | 0.00 | 0.00 | 0.00 | 67 | 1013.0 |
| 20260508073415 | 60 | 176 | 2.0 | 7.0 | 0.00 | 0.00 | 0.00 | 67 | 1013.0 |
| 20260508072415 | 60 | 168 | 3.0 | 7.0 | 0.00 | 0.00 | 0.00 | 65 | 1013.0 |
| 20260508071415 | 59 | 180 | 2.0 | 5.0 | 0.00 | 0.00 | 0.00 | 63 | 1012.9 |
| 20260508070415 | 58 | 222 | 3.0 | 4.0 | 0.00 | 0.00 | 0.00 | 65 | 1012.8 |
| 20260508065436 | 58 | 228 | 3.0 | 5.0 | 0.00 | 0.00 | 0.00 | 67 | 1012.8 |
| 20260508064415 | 57 | 231 | 3.0 | 6.0 | 0.00 | 0.00 | 0.00 | 69 | 1012.8 |
| 20260508063416 | 57 | 247 | 4.0 | 7.0 | 0.00 | 0.00 | 0.00 | 70 | 1012.6 |
| 20260508062415 | 57 | 249 | 5.0 | 7.0 | 0.00 | 0.00 | 0.00 | 70 | 1012.6 |
| 20260508061435 | 56 | 252 | 4.0 | 9.0 | 0.00 | 0.00 | 0.00 | 70 | 1012.5 |
| 20260508060435 | 57 | 239 | 4.0 | 7.0 | 0.00 | 0.00 | 0.00 | 70 | 1012.5 |
| 20260508055415 | 56 | 254 | 5.0 | 7.0 | 0.00 | 0.00 | 0.00 | 69 | 1012.4 |
| 20260508054415 | 56 | 250 | 3.0 | 7.0 | 0.00 | 0.00 | 0.00 | 70 | 1012.3 |
| 20260508053415 | 55 | 235 | 2.0 | 3.0 | 0.00 | 0.00 | 0.00 | 71 | 1012.2 |
| 20260508052416 | 56 | 296 | 3.0 | 5.0 | 0.00 | 0.00 | 0.00 | 71 | 1012.1 |
| 20260508051415 | 56 | 301 | 3.0 | 4.0 | 0.00 | 0.00 | 0.00 | 70 | 1011.9 |
| 20260508050415 | 57 | 286 | 3.0 | 4.0 | 0.00 | 0.00 | 0.00 | 69 | 1011.8 |
| 20260508045415 | 57 | 356 | 1.0 | 3.0 | 0.00 | 0.00 | 0.00 | 67 | 1011.8 |
| 20260508044415 | 57 | 343 | 1.0 | 3.0 | 0.00 | 0.00 | 0.00 | 67 | 1011.7 |
| 20260508043415 | 57 | 349 | 2.0 | 3.0 | 0.00 | 0.00 | 0.00 | 66 | 1011.7 |
| 20260508042415 | 57 | 350 | 2.0 | 3.0 | 0.00 | 0.00 | 0.00 | 67 | 1011.8 |
| 20260508041435 | 56 | 318 | 2.0 | 3.0 | 0.00 | 0.00 | 0.00 | 66 | 1012.0 |
| 20260508040415 | 57 | 310 | 2.0 | 3.0 | 0.00 | 0.00 | 0.00 | 65 | 1012.0 |
| 20260508035416 | 57 | 312 | 2.0 | 3.0 | 0.00 | 0.00 | 0.00 | 64 | 1012.0 |
| 20260508034415 | 57 | 348 | 2.0 | 2.0 | 0.00 | 0.00 | 0.00 | 63 | 1012.1 |
| 20260508033435 | 57 | 342 | 1.0 | 1.0 | 0.00 | 0.00 | 0.00 | 65 | 1012.2 |
| 20260508032416 | 57 | 262 | 2.0 | 3.0 | 0.00 | 0.00 | 0.00 | 64 | 1012.2 |
| 20260508031415 | 57 | 296 | 1.0 | 2.0 | 0.00 | 0.00 | 0.00 | 64 | 1012.2 |
| 20260508030416 | 57 | 297 | 2.0 | 3.0 | 0.00 | 0.00 | 0.00 | 63 | 1012.2 |
| 20260508025416 | 58 | 289 | 1.0 | 3.0 | 0.00 | 0.00 | 0.00 | 63 | 1012.2 |
| 20260508024436 | 57 | 352 | 1.0 | 2.0 | 0.00 | 0.00 | 0.00 | 64 | 1012.2 |
| 20260508023415 | 57 | 274 | 2.0 | 3.0 | 0.00 | 0.00 | 0.00 | 64 | 1012.2 |
| 20260508022416 | 57 | 259 | 2.0 | 4.0 | 0.00 | 0.00 | 0.00 | 65 | 1012.2 |
| 20260508021455 | 57 | 271 | 2.0 | 4.0 | 0.00 | 0.00 | 0.00 | 65 | 1012.4 |
| 20260508020418 | 57 | 275 | 1.0 | 3.0 | 0.00 | 0.00 | 0.00 | 66 | 1012.5 |
| 20260508015415 | 56 | 236 | 2.0 | 4.0 | 0.00 | 0.00 | 0.00 | 66 | 1012.7 |
| 20260508014415 | 56 | 286 | 3.0 | 5.0 | 0.00 | 0.00 | 0.00 | 65 | 1012.6 |
| 20260508013415 | 56 | 312 | 3.0 | 4.0 | 0.00 | 0.00 | 0.00 | 65 | 1012.7 |
| 20260508012415 | 56 | 303 | 3.0 | 4.0 | 0.00 | 0.00 | 0.00 | 65 | 1012.9 |
| 20260508011415 | 57 | 283 | 2.0 | 3.0 | 0.00 | 0.00 | 0.00 | 64 | 1013.1 |
| 20260508010415 | 57 | 261 | 2.0 | 3.0 | 0.00 | 0.00 | 0.00 | 64 | 1013.3 |
| 20260508005415 | 56 | 289 | 2.0 | 3.0 | 0.00 | 0.00 | 0.00 | 64 | 1013.2 |
| 20260508004416 | 57 | 272 | 2.0 | 4.0 | 0.00 | 0.00 | 0.00 | 64 | 1013.4 |
| 20260508003435 | 57 | 251 | 3.0 | 4.0 | 0.00 | 0.00 | 0.00 | 64 | 1013.3 |
| 20260508002415 | 56 | 266 | 1.0 | 3.0 | 0.00 | 0.00 | 0.00 | 64 | 1013.3 |
| 20260508001435 | 57 | 279 | 2.0 | 4.0 | 0.00 | 0.00 | 0.00 | 64 | 1013.3 |
| 20260508000415 | 57 | 296 | 3.0 | 4.0 | 0.00 | 0.00 | 0.00 | 63 | 1013.3 |
| 20260507235415 | 57 | 315 | 2.0 | 4.0 | 0.00 | 0.00 | 0.00 | 63 | 1013.2 |
| 20260507234415 | 57 | 289 | 1.0 | 2.0 | 0.00 | 0.00 | 0.00 | 63 | 1013.3 |
| 20260507233415 | 57 | 291 | 3.0 | 4.0 | 0.00 | 0.00 | 0.00 | 62 | 1013.3 |
| 20260507232415 | 57 | 297 | 3.0 | 4.0 | 0.00 | 0.00 | 0.00 | 63 | 1013.4 |
| 20260507231435 | 57 | 297 | 2.0 | 4.0 | 0.00 | 0.00 | 0.00 | 62 | 1013.5 |
| 20260507230415 | 58 | 263 | 1.0 | 2.0 | 0.00 | 0.00 | 0.00 | 61 | 1013.7 |
| 20260507225416 | 58 | 311 | 2.0 | 3.0 | 0.00 | 0.00 | 0.00 | 60 | 1013.5 |
| 20260507224415 | 59 | 276 | 1.0 | 2.0 | 0.00 | 0.00 | 0.00 | 59 | 1013.7 |
| 20260507223436 | 59 | 353 | 2.0 | 3.0 | 0.00 | 0.00 | 0.00 | 58 | 1013.7 |
| 20260507222415 | 59 | 67 | 3.0 | 5.0 | 0.00 | 0.00 | 0.00 | 58 | 1013.9 |
| 20260507221416 | 59 | 55 | 2.0 | 4.0 | 0.00 | 0.00 | 0.00 | 58 | 1013.9 |
| 20260507220416 | 59 | 28 | 3.0 | 7.0 | 0.00 | 0.00 | 0.00 | 58 | 1013.9 |
| 20260507215415 | 59 | 42 | 3.0 | 5.0 | 0.00 | 0.00 | 0.00 | 58 | 1014.0 |
| 20260507214415 | 59 | 91 | 3.0 | 4.0 | 0.00 | 0.00 | 0.00 | 58 | 1014.1 |
| 20260507213415 | 59 | 119 | 2.0 | 4.0 | 0.00 | 0.00 | 0.00 | 58 | 1014.1 |
| 20260507212415 | 59 | 60 | 1.0 | 4.0 | 0.00 | 0.00 | 0.00 | 58 | 1014.0 |
| 20260507211436 | 59 | 21 | 1.0 | 4.0 | 0.00 | 0.00 | 0.00 | 58 | 1014.0 |
| 20260507210415 | 59 | 346 | 5.0 | 13.0 | 0.00 | 0.00 | 0.00 | 58 | 1013.7 |
| 20260507205415 | 59 | 267 | 4.0 | 11.0 | 0.00 | 0.00 | 0.00 | 58 | 1013.9 |
| 20260507204415 | 59 | 287 | 7.0 | 15.0 | 0.00 | 0.00 | 0.00 | 58 | 1013.7 |
| 20260507203436 | 59 | 296 | 8.0 | 15.0 | 0.00 | 0.00 | 0.00 | 58 | 1013.5 |
| 20260507202415 | 59 | 289 | 9.0 | 16.0 | 0.00 | 0.00 | 0.00 | 57 | 1013.5 |
| 20260507201416 | 59 | 290 | 9.0 | 15.0 | 0.00 | 0.00 | 0.00 | 56 | 1013.2 |
| 20260507200415 | 59 | 299 | 8.0 | 18.0 | 0.00 | 0.00 | 0.00 | 56 | 1013.2 |
| 20260507195415 | 59 | 293 | 8.0 | 15.0 | 0.00 | 0.00 | 0.00 | 55 | 1013.1 |
| 20260507194415 | 60 | 290 | 10.0 | 18.0 | 0.00 | 0.00 | 0.00 | 55 | 1013.1 |
| 20260507193415 | 60 | 283 | 7.0 | 14.0 | 0.00 | 0.00 | 0.00 | 55 | 1013.1 |
| 20260507192415 | 60 | 270 | 8.0 | 17.0 | 0.00 | 0.00 | 0.00 | 54 | 1013.2 |
| 20260507191435 | 60 | 283 | 11.0 | 18.0 | 0.00 | 0.00 | 0.00 | 53 | 1013.1 |
| 20260507190415 | 60 | 282 | 8.0 | 14.0 | 0.00 | 0.00 | 0.00 | 52 | 1013.0 |
| 20260507185415 | 61 | 289 | 8.0 | 15.0 | 0.00 | 0.00 | 0.00 | 49 | 1012.8 |
| 20260507184415 | 61 | 286 | 7.0 | 15.0 | 0.00 | 0.00 | 0.00 | 50 | 1012.8 |
| 20260507183415 | 61 | 290 | 8.0 | 15.0 | 0.00 | 0.00 | 0.00 | 50 | 1012.7 |
| 20260507182416 | 62 | 288 | 10.0 | 18.0 | 0.00 | 0.00 | 0.00 | 49 | 1012.9 |
| 20260507181416 | 62 | 291 | 9.0 | 17.0 | 0.00 | 0.00 | 0.00 | 48 | 1012.8 |
| 20260507180415 | 63 | 328 | 7.0 | 16.0 | 0.00 | 0.00 | 0.00 | 46 | 1012.7 |
| 20260507175416 | 63 | 313 | 7.0 | 14.0 | 0.00 | 0.00 | 0.00 | 45 | 1012.6 |
| 20260507174415 | 63 | 298 | 9.0 | 17.0 | 0.00 | 0.00 | 0.00 | 45 | 1012.6 |
| 20260507173415 | 64 | 290 | 8.0 | 14.0 | 0.00 | 0.00 | 0.00 | 43 | 1012.6 |
| 20260507172415 | 64 | 327 | 8.0 | 17.0 | 0.00 | 0.00 | 0.00 | 41 | 1012.6 |
| 20260507171415 | 65 | 296 | 7.0 | 12.0 | 0.00 | 0.00 | 0.00 | 41 | 1012.7 |
| 20260507170415 | 65 | 296 | 12.0 | 18.0 | 0.00 | 0.00 | 0.00 | 40 | 1012.7 |
| 20260507165415 | 65 | 293 | 10.0 | 19.0 | 0.00 | 0.00 | 0.00 | 38 | 1012.7 |
| 20260507164435 | 66 | 278 | 9.0 | 14.0 | 0.00 | 0.00 | 0.00 | 38 | 1012.7 |
| 20260507163416 | 66 | 298 | 7.0 | 16.0 | 0.00 | 0.00 | 0.00 | 37 | 1012.6 |
| 20260507162435 | 65 | 280 | 10.0 | 15.0 | 0.00 | 0.00 | 0.00 | 40 | 1012.7 |
| 20260507161416 | 66 | 290 | 11.0 | 17.0 | 0.00 | 0.00 | 0.00 | 38 | 1012.6 |
| 20260507160415 | 66 | 292 | 7.0 | 15.0 | 0.00 | 0.00 | 0.00 | 37 | 1012.7 |
| 20260507155415 | 66 | 294 | 12.0 | 18.0 | 0.00 | 0.00 | 0.00 | 39 | 1012.6 |
| 20260507154415 | 66 | 276 | 5.0 | 14.0 | 0.00 | 0.00 | 0.00 | 40 | 1012.6 |
| 20260507153415 | 67 | 249 | 4.0 | 17.0 | 0.00 | 0.00 | 0.00 | 41 | 1012.6 |
| 20260507152415 | 67 | 299 | 9.0 | 18.0 | 0.00 | 0.00 | 0.00 | 40 | 1012.6 |
| 20260507151415 | 67 | 287 | 10.0 | 15.0 | 0.00 | 0.00 | 0.00 | 40 | 1012.7 |
| 20260507150416 | 67 | 316 | 6.0 | 13.0 | 0.00 | 0.00 | 0.00 | 41 | 1012.6 |
| 20260507145435 | 67 | 301 | 6.0 | 12.0 | 0.00 | 0.00 | 0.00 | 41 | 1012.7 |
| 20260507144416 | 66 | 337 | 8.0 | 14.0 | 0.00 | 0.00 | 0.00 | 42 | 1012.8 |
| 20260507143419 | 67 | 297 | 7.0 | 13.0 | 0.00 | 0.00 | 0.00 | 41 | 1012.9 |
| 20260507142415 | 67 | 263 | 6.0 | 12.0 | 0.00 | 0.00 | 0.00 | 39 | 1013.0 |
| 20260507141415 | 68 | 303 | 6.0 | 11.0 | 0.00 | 0.00 | 0.00 | 40 | 1013.0 |
| 20260507140415 | 67 | 259 | 8.0 | 15.0 | 0.00 | 0.00 | 0.00 | 41 | 1013.2 |
| 20260507135435 | 68 | 272 | 7.0 | 12.0 | 0.00 | 0.00 | 0.00 | 40 | 1013.2 |
| 20260507134415 | 68 | 274 | 7.0 | 13.0 | 0.00 | 0.00 | 0.00 | 41 | 1013.3 |
| 20260507133415 | 66 | 318 | 5.0 | 9.0 | 0.00 | 0.00 | 0.00 | 43 | 1013.3 |
| 20260507132415 | 66 | 294 | 6.0 | 9.0 | 0.00 | 0.00 | 0.00 | 43 | 1013.3 |
| 20260507131416 | 66 | 321 | 6.0 | 9.0 | 0.00 | 0.00 | 0.00 | 41 | 1013.3 |
| 20260507130435 | 69 | 329 | 6.0 | 12.0 | 0.00 | 0.00 | 0.00 | 40 | 1013.4 |
| 20260507125435 | 67 | 278 | 3.0 | 7.0 | 0.00 | 0.00 | 0.00 | 40 | 1013.5 |
| 20260507124435 | 67 | 258 | 3.0 | 5.0 | 0.00 | 0.00 | 0.00 | 41 | 1013.6 |
| 20260507123415 | 66 | 285 | 5.0 | 9.0 | 0.00 | 0.00 | 0.00 | 42 | 1013.7 |
| 20260507122415 | 66 | 352 | 5.0 | 10.0 | 0.00 | 0.00 | 0.00 | 42 | 1013.7 |